Flag for Poland Weather past 2 weeks in Lidzbark Warmiński, Poland

Now
37 °F

Chilly.


Feels Like: 31 °F
Forecast: 31 / 38 °F
Wind: 7 mph from West

Location: Ketrzyn

Current Time: Mar 3, 2015 at 6:33:00 AM

Latest Report: Mar 3, 2015 at 5:00 AM


Visibility: 12 mi

Pressure: 29.61 "Hg

Humidity: 86%

Dew point: 33 °F

Location of Lidzbark WarmińskiLocation

Historic Weather in Lidzbark Warmiński — Graph

°F

Lidzbark Warmiński temperature yesterday

Maximum temperature yesterday: 46 °F (at 3:00 PM)
Minimum temperature yesterday: 34 °F (at 7:00 PM)
Average temperature yesterday: 40 °F

Past Weeks' High & Low Weather Summary

 TemperatureHumidityPressure
High46 °F (Mar 2, 3:00 PM)99% (Feb 27, 8:00 AM)30.68 "Hg (Feb 27, 8:00 AM)
Low19 °F (Feb 17, 7:00 AM)37% (Feb 17, 2:00 PM)29.35 "Hg (Mar 2, 3:00 PM)
Average35 °F80%30.01 "Hg
* Reported Feb 16 5:00 AM — Mar 3 5:00 AM, Lidzbark Warmiński, Weather by CustomWeather, © 2015

Note: Actual official high and low records may vary slightly from our data, if they occured in-between our weather recording intervals... More about our weather records

Advertising

Lidzbark Warmiński weather history for previous 24 hours

 ConditionsComfort  
Time TempWeatherWind HumidityBarometerVisibility
5:00 AM
Tue, Mar 3
37 °FChilly.7 mph86%29.61 "Hg12 mi
4:00 AM37 °FChilly.7 mph87%29.59 "Hg12 mi
3:00 AM37 °FChilly.7 mph87%29.57 "Hg10 mi
2:00 AM37 °FChilly.7 mph87%29.56 "Hg12 mi
1:00 AM37 °FChilly.7 mph89%29.54 "Hg17 mi
12:00 AM37 °FChilly.7 mph89%29.50 "Hg28 mi
11:00 PM
Mon, Mar 2
37 °FChilly.6 mph91%29.50 "Hg9 mi
9:00 PM38 °FLight rain. Overcast.8 mph91%29.44 "Hg11 mi
8:00 PM36 °FLight rain. Overcast.6 mph94%29.44 "Hg6 mi
7:00 PM34 °FLight rain. Overcast.7 mph95%29.41 "Hg6 mi
6:00 PM38 °FLight rain. Overcast.5 mph95%29.35 "Hg6 mi
5:00 PM39 °FRain. Cloudy.5 mph92%29.35 "Hg4 mi
4:00 PM44 °FRain. Cloudy.6 mph87%29.35 "Hg4 mi
3:00 PM46 °FCool.8 mph75%29.35 "Hg11 mi
2:00 PM45 °FQuite cool.6 mph82%29.38 "Hg7 mi
1:00 PM44 °FDrizzle. Cloudy.5 mph83%29.44 "Hg6 mi
12:00 PM44 °FQuite cool.7 mph79%29.44 "Hg6 mi
11:00 AM44 °FQuite cool.8 mph80%29.47 "Hg6 mi
10:00 AM43 °FQuite cool.8 mph83%29.50 "Hg7 mi
9:00 AM41 °FQuite cool.7 mph80%29.50 "Hg9 mi
8:00 AM40 °FChilly.6 mph82%29.50 "Hg7 mi
7:00 AM39 °FFog.5 mph91%29.50 "Hg3 mi
6:00 AM39 °FFog.5 mph92%29.53 "Hg2 mi
Weather by CustomWeather, © 2015

See weather overviewHow to use our weather pages